Hamilton Island, Australia

12:05 AM AEST on March 28, 2017 (GMT +1000)
Hamilton Island

Weather History for YBHM - October, 2013

Change the Weather History Date:

Sunday, October 27, 2013

  Actual Average Record
Temperature  
Mean Temperature 78 °F -  
Max Temperature 81 °F - - ()
Min Temperature 74 °F - - ()
Cooling Degree Days 12    
Growing Degree Days 28 (Base 50)    
Moisture  
Dew Point 67 °F    
Average Humidity 69    
Maximum Humidity 78    
Minimum Humidity 56    
Precipitation  
Precipitation 0.00 in - - ()
Sea Level Pressure  
Sea Level Pressure 30.05 in    
Wind  
Wind Speed 11 mph ()    
Max Wind Speed 21 mph    
Max Gust Speed -    
T = Trace of Precipitation, MM = Missing Value Source: Averaged Metar Reports

Daily Weather History Graph

Daily Weather History Graph

Search for Another Location

Airport or City:

Trip Planner

Search our weather history database for the weather conditions in past years. The results will help you decide how hot, cold, wet, or windy it might be!

Date:

Astronomy

Oct. 27, 2013 Rise Set
Actual Time 5:25 AM AEST 6:11 PM AEST
Civil Twilight 5:02 AM AEST 6:33 PM AEST
Nautical Twilight 4:35 AM AEST 7:00 PM AEST
Astronomical Twilight 4:08 AM AEST 7:28 PM AEST
Moon 12:07 AM AEST 11:43 AM AEST
Length of Visible Light 13h 31m
Length of Day
12h 45m
Waning Gibbous, 49% of the Moon is Illuminated
Oct 27
Waning Gibbous
Nov 3
New
Nov 10
First Quarter
Nov 18
Full
Nov 26
Last Quarter

Hourly Weather History & Observations

Time (AEST) Temp. Heat Index Dew Point Humidity Pressure Visibility Wind Dir Wind Speed Gust Speed Precip Events Conditions
12:00 AM 76 °F - 69 °F 72% 30.06 in - East 8.1 mph - -  
12:00 AM 75.2 °F - 68.0 °F 78% 30.06 in - East 8.1 mph - N/A   Unknown
12:30 AM 75.2 °F - 68.0 °F 78% 30.04 in - ENE 8.1 mph - N/A   Unknown
1:00 AM 75.2 °F - 68.0 °F 78% 30.04 in - East 8.1 mph - N/A   Unknown
1:30 AM 75.2 °F - 68.0 °F 78% 30.04 in - East 8.1 mph - N/A   Unknown
2:00 AM 75.2 °F - 68.0 °F 78% 30.04 in - East 10.4 mph - N/A   Unknown
2:30 AM 75.2 °F - 68.0 °F 78% 30.04 in - East 9.2 mph - N/A   Unknown
3:00 AM 75 °F - 67 °F 71% 30.03 in - East 11.5 mph - -  
3:00 AM 75.2 °F - 68.0 °F 78% 30.01 in - East 11.5 mph - N/A   Unknown
3:30 AM 75.2 °F - 68.0 °F 78% 30.04 in - East 9.2 mph - N/A   Unknown
4:00 AM 75.2 °F - 68.0 °F 78% 30.01 in - ENE 8.1 mph - N/A   Unknown
4:30 AM 75.2 °F - 68.0 °F 78% 30.04 in - ENE 8.1 mph - N/A   Unknown
5:00 AM 75.2 °F - 68.0 °F 78% 30.04 in - East 10.4 mph - N/A   Unknown
5:30 AM 75.2 °F - 68.0 °F 78% 30.04 in - East 9.2 mph - N/A   Unknown
6:00 AM 76 °F - 67 °F 67% 30.04 in - East 8.1 mph - -  
6:00 AM 75.2 °F - 68.0 °F 78% 30.04 in - East 8.1 mph - N/A   Unknown
6:30 AM 77.0 °F - 68.0 °F 74% 30.06 in - ESE 9.2 mph - N/A   Unknown
7:00 AM 77.0 °F - 68.0 °F 74% 30.06 in - ESE 9.2 mph - N/A   Unknown
7:30 AM 78.8 °F - 68.0 °F 69% 30.06 in - East 11.5 mph - N/A   Unknown
8:00 AM 80.6 °F 83.2 °F 68.0 °F 65% 30.09 in - ESE 11.5 mph - N/A   Unknown
8:30 AM 80.6 °F 83.2 °F 68.0 °F 65% 30.09 in - ESE 12.7 mph - N/A   Unknown
9:00 AM 81 °F - 68 °F 56% 30.10 in - ESE 12.7 mph - -  
9:00 AM 80.6 °F 83.2 °F 68.0 °F 65% 30.09 in - ESE 12.7 mph - N/A   Unknown
9:30 AM 80.6 °F 82.7 °F 66.2 °F 61% 30.09 in - ESE 13.8 mph - N/A   Unknown
10:00 AM 80.6 °F 83.2 °F 68.0 °F 65% 30.09 in - East 13.8 mph - N/A   Unknown
10:30 AM 80.6 °F 83.2 °F 68.0 °F 65% 30.09 in - East 15.0 mph - N/A   Unknown
11:00 AM 80.6 °F 83.2 °F 68.0 °F 65% 30.09 in - East 16.1 mph - N/A   Unknown
11:30 AM 80.6 °F 83.2 °F 68.0 °F 65% 30.06 in - East 17.3 mph - N/A   Unknown
12:00 PM 80 °F - 68 °F 58% 30.06 in - East 17.3 mph - -  
12:00 PM 80.6 °F 83.2 °F 68.0 °F 65% 30.06 in - East 17.3 mph - N/A   Unknown
12:30 PM 80.6 °F 83.2 °F 68.0 °F 65% 30.04 in - East 16.1 mph - N/A   Unknown
1:00 PM 80.6 °F 83.2 °F 68.0 °F 65% 30.04 in - East 16.1 mph - N/A   Unknown
1:30 PM 80.6 °F 82.7 °F 66.2 °F 61% 30.04 in - East 16.1 mph - N/A   Unknown
2:00 PM 80.6 °F 83.2 °F 68.0 °F 65% 30.04 in - East 17.3 mph - N/A   Unknown
2:30 PM 78.8 °F - 68.0 °F 69% 30.01 in - East 18.4 mph - N/A   Unknown
3:00 PM 79 °F - 67 °F 59% 30.02 in - East 18.4 mph - -  
3:00 PM 78.8 °F - 68.0 °F 69% 30.01 in - East 18.4 mph - N/A   Unknown
3:30 PM 78.8 °F - 66.2 °F 65% 30.01 in - East 19.6 mph - N/A   Unknown
4:00 PM 78.8 °F - 66.2 °F 65% 30.01 in - East 18.4 mph - N/A   Unknown
4:30 PM 77.0 °F - 68.0 °F 74% 30.01 in - East 20.7 mph - N/A   Unknown
5:00 PM 77.0 °F - 66.2 °F 69% 30.01 in - East 19.6 mph - N/A   Unknown
5:30 PM 77.0 °F - 66.2 °F 69% 30.04 in - East 19.6 mph - N/A   Unknown
6:00 PM 77 °F - 66 °F 60% 30.04 in - East 16.1 mph - -  
6:00 PM 77.0 °F - 66.2 °F 69% 30.04 in - East 16.1 mph - N/A   Unknown
6:30 PM 77.0 °F - 66.2 °F 69% 30.04 in - East 15.0 mph - N/A   Unknown
7:00 PM 77.0 °F - 66.2 °F 69% 30.04 in - East 16.1 mph - N/A   Unknown
7:30 PM 77.0 °F - 66.2 °F 69% 30.06 in - East 16.1 mph - N/A   Unknown
8:00 PM 77.0 °F - 66.2 °F 69% 30.06 in - East 16.1 mph - N/A   Unknown
8:30 PM 77.0 °F - 66.2 °F 69% 30.06 in - East 12.7 mph - N/A   Unknown
9:00 PM 76 °F - 65 °F 60% 30.08 in - ENE 13.8 mph - -  
9:00 PM 77.0 °F - 64.4 °F 65% 30.06 in - ENE 13.8 mph - N/A   Unknown
9:30 PM 75.2 °F - 64.4 °F 69% 30.09 in - NE 10.4 mph - N/A   Unknown
10:00 PM 75.2 °F - 64.4 °F 69% 30.09 in - NE 9.2 mph - N/A   Unknown
10:30 PM 75.2 °F - 64.4 °F 69% 30.09 in - NE 8.1 mph - N/A   Unknown
11:00 PM 75.2 °F - 64.4 °F 69% 30.09 in - NE 9.2 mph - N/A   Unknown
11:30 PM 75.2 °F - 64.4 °F 69% 30.06 in - NE 9.2 mph - N/A   Unknown